BAW2221 ELLX-EGLL

Flight info

Callsign BAW2221
Flight time 0h 59m
Altitude 34000
Route LNO1P LNO N852 TERLA L608 LOGAN LOGA
Aircraft A319/M-SDE3FGHIRWY/LB1

Departure

Time 2026-05-04 14:46
Airport Luxembourg-Findel International Airport (ELLX)

Arrival

Time 2026-05-04 15:46
Airport London Heathrow Airport (EGLL)
Time Latitude Longitude Altitude Speed Heading
2026-05-04 14:23 49.63333 6.21639 1238 ft 0 kts 358°
2026-05-04 14:32 49.63312 6.21640 1237 ft 3 kts 358°
2026-05-04 14:32 49.63287 6.21634 1236 ft 3 kts 34°
2026-05-04 14:32 49.63276 6.21608 1235 ft 0 kts 78°
2026-05-04 14:35 49.63276 6.21610 1235 ft 0 kts 78°
2026-05-04 14:35 49.63293 6.21670 1235 ft 12 kts 60°
2026-05-04 14:36 49.63326 6.21756 1234 ft 9 kts 58°
2026-05-04 14:36 49.63360 6.21857 1232 ft 11 kts 84°
2026-05-04 14:36 49.63306 6.22028 1223 ft 22 kts 137°
2026-05-04 14:36 49.63193 6.22006 1219 ft 19 kts 236°
2026-05-04 14:37 49.63116 6.21774 1222 ft 29 kts 244°
2026-05-04 14:37 49.63038 6.21511 1227 ft 27 kts 243°
2026-05-04 14:37 49.62933 6.21184 1235 ft 39 kts 244°
2026-05-04 14:37 49.62815 6.20821 1237 ft 36 kts 239°
2026-05-04 14:38 49.62644 6.20545 1228 ft 35 kts 230°
2026-05-04 14:38 49.62492 6.20266 1220 ft 33 kts 238°
2026-05-04 14:38 49.62377 6.19956 1207 ft 34 kts 240°
2026-05-04 14:38 49.62255 6.19631 1191 ft 35 kts 239°
2026-05-04 14:39 49.62128 6.19287 1173 ft 37 kts 239°
2026-05-04 14:39 49.61999 6.18936 1160 ft 36 kts 240°
2026-05-04 14:39 49.61847 6.18726 1149 ft 26 kts 183°
2026-05-04 14:40 49.61786 6.18835 1152 ft 0 kts 64°
2026-05-04 14:40 49.61783 6.18826 1152 ft 0 kts 64°
2026-05-04 14:45 49.61784 6.18828 1152 ft 3 kts 64°
2026-05-04 14:46 49.61918 6.19203 1166 ft 75 kts 59°
2026-05-04 14:46 49.62280 6.20178 1214 ft 133 kts 59°
2026-05-04 14:46 49.62793 6.21607 1483 ft 160 kts 65°
2026-05-04 14:46 49.63315 6.23129 2091 ft 164 kts 65°
2026-05-04 14:47 49.63873 6.24621 2771 ft 164 kts 64°
2026-05-04 14:47 49.64462 6.26162 3221 ft 173 kts 63°
2026-05-04 14:47 49.65087 6.27815 3568 ft 188 kts 63°
2026-05-04 14:47 49.65785 6.29655 3903 ft 207 kts 63°
2026-05-04 14:48 49.66541 6.31667 4223 ft 228 kts 62°
2026-05-04 14:48 49.67366 6.33864 4626 ft 248 kts 63°
2026-05-04 14:48 49.68273 6.36247 5113 ft 267 kts 58°
2026-05-04 14:48 49.69700 6.38218 5606 ft 289 kts 25°
2026-05-04 14:49 49.71679 6.38700 6331 ft 297 kts 350°
2026-05-04 14:49 49.73537 6.37482 7174 ft 294 kts 315°
2026-05-04 14:49 49.74858 6.35163 8016 ft 292 kts 302°
2026-05-04 14:49 49.76033 6.32650 8858 ft 297 kts 301°
2026-05-04 14:50 49.77267 6.30054 9705 ft 301 kts 302°
2026-05-04 14:50 49.78539 6.27490 10549 ft 304 kts 303°
2026-05-04 14:50 49.79836 6.24958 11333 ft 307 kts 304°
2026-05-04 14:50 49.81185 6.22370 12053 ft 308 kts 304°
2026-05-04 14:51 49.82525 6.19825 12683 ft 311 kts 305°
2026-05-04 14:51 49.83901 6.17202 13152 ft 322 kts 305°
2026-05-04 14:51 49.85435 6.14506 13455 ft 341 kts 314°
2026-05-04 14:51 49.87290 6.12109 13752 ft 357 kts 316°
2026-05-04 14:52 49.89107 6.09443 14061 ft 370 kts 312°
2026-05-04 14:52 49.90959 6.06574 14349 ft 386 kts 312°
2026-05-04 14:52 49.92890 6.03590 14625 ft 399 kts 313°
2026-05-04 14:52 49.94899 6.00522 15008 ft 407 kts 313°
2026-05-04 14:53 49.96920 5.97469 15603 ft 411 kts 313°
2026-05-04 14:53 49.98988 5.94356 16264 ft 414 kts 314°
2026-05-04 14:53 50.01056 5.91250 16868 ft 417 kts 314°
2026-05-04 14:53 50.03135 5.88124 17446 ft 419 kts 314°
2026-05-04 14:54 50.05206 5.85010 18000 ft 421 kts 314°
2026-05-04 14:54 50.07312 5.81846 18526 ft 424 kts 314°
2026-05-04 14:54 50.09423 5.78669 19059 ft 425 kts 314°
2026-05-04 14:54 50.11565 5.75446 19566 ft 429 kts 313°
2026-05-04 14:55 50.13721 5.72195 20057 ft 433 kts 313°
2026-05-04 14:55 50.15894 5.68910 20553 ft 435 kts 314°
2026-05-04 14:55 50.18044 5.65659 21017 ft 438 kts 314°
2026-05-04 14:55 50.20238 5.62335 21475 ft 440 kts 314°
2026-05-04 14:56 50.22431 5.59008 21912 ft 444 kts 313°
2026-05-04 14:56 50.24639 5.55654 22353 ft 447 kts 313°
2026-05-04 14:56 50.26869 5.52258 22792 ft 450 kts 313°
2026-05-04 14:56 50.29093 5.48866 23224 ft 452 kts 313°
2026-05-04 14:57 50.31360 5.45409 23669 ft 455 kts 313°
2026-05-04 14:57 50.33618 5.41960 24112 ft 457 kts 313°
2026-05-04 14:57 50.35878 5.38503 24523 ft 460 kts 313°
2026-05-04 14:57 50.38169 5.34995 24916 ft 463 kts 313°
2026-05-04 14:58 50.40469 5.31465 25314 ft 465 kts 311°
2026-05-04 14:58 50.42781 5.27911 25704 ft 468 kts 312°
2026-05-04 14:58 50.45092 5.24353 26038 ft 471 kts 311°
2026-05-04 14:58 50.47424 5.20760 26396 ft 473 kts 312°
2026-05-04 14:59 50.49750 5.17171 26865 ft 472 kts 312°
2026-05-04 14:59 50.52089 5.13556 27372 ft 471 kts 311°
2026-05-04 14:59 50.56733 5.06367 28293 ft 470 kts 311°
2026-05-04 15:00 50.59066 5.02747 28740 ft 470 kts 311°
2026-05-04 15:00 50.61362 4.99178 29174 ft 470 kts 311°
2026-05-04 15:00 50.63696 4.95549 29625 ft 469 kts 311°
2026-05-04 15:01 50.68288 4.88384 30484 ft 469 kts 311°
2026-05-04 15:01 50.70584 4.84795 30891 ft 468 kts 311°
2026-05-04 15:01 50.72897 4.81170 31320 ft 468 kts 311°
2026-05-04 15:01 50.75179 4.77591 31758 ft 466 kts 311°
2026-05-04 15:02 50.77492 4.73957 32166 ft 465 kts 311°
2026-05-04 15:02 50.79772 4.70367 32549 ft 465 kts 311°
2026-05-04 15:02 50.82056 4.66767 32848 ft 466 kts 311°
2026-05-04 15:02 50.84335 4.63167 33123 ft 467 kts 311°
2026-05-04 15:03 50.86595 4.59540 33422 ft 467 kts 309°
2026-05-04 15:03 50.88757 4.55714 33713 ft 466 kts 306°
2026-05-04 15:03 50.90762 4.51734 33939 ft 464 kts 302°
2026-05-04 15:03 50.92626 4.47567 33957 ft 462 kts 299°
2026-05-04 15:04 50.95999 4.38947 33962 ft 461 kts 297°
2026-05-04 15:04 50.99292 4.30284 33962 ft 460 kts 296°
2026-05-04 15:05 51.02574 4.21659 33963 ft 460 kts 296°
2026-05-04 15:05 51.05865 4.12998 33959 ft 460 kts 296°
2026-05-04 15:06 51.09161 4.04290 33956 ft 460 kts 296°
2026-05-04 15:07 51.14072 3.91266 33947 ft 460 kts 296°
2026-05-04 15:07 51.17334 3.82587 33945 ft 460 kts 297°
2026-05-04 15:08 51.20605 3.73849 33948 ft 460 kts 297°
2026-05-04 15:08 51.23880 3.65074 33948 ft 459 kts 297°
2026-05-04 15:09 51.27112 3.56391 33952 ft 459 kts 297°
2026-05-04 15:09 51.30363 3.47605 33955 ft 459 kts 297°
2026-05-04 15:10 51.34949 3.34307 33958 ft 455 kts 289°
2026-05-04 15:11 51.38356 3.20259 33965 ft 453 kts 287°
2026-05-04 15:11 51.40569 3.10847 33966 ft 452 kts 287°
2026-05-04 15:12 51.42767 3.01510 33969 ft 452 kts 287°
2026-05-04 15:12 51.44982 2.92085 33974 ft 452 kts 287°
2026-05-04 15:13 51.47184 2.82682 33975 ft 452 kts 287°
2026-05-04 15:13 51.49375 2.73288 33976 ft 453 kts 287°
2026-05-04 15:14 51.51558 2.63881 33981 ft 453 kts 287°
2026-05-04 15:14 51.53754 2.54382 33980 ft 453 kts 287°
2026-05-04 15:15 51.55920 2.44959 33988 ft 453 kts 287°
2026-05-04 15:15 51.58073 2.35581 33598 ft 445 kts 287°
2026-05-04 15:16 51.60215 2.26192 31748 ft 455 kts 287°
2026-05-04 15:16 51.61291 2.21450 30771 ft 459 kts 287°
2026-05-04 15:16 51.63473 2.11793 28687 ft 464 kts 287°
2026-05-04 15:17 51.64567 2.06943 27671 ft 464 kts 287°
2026-05-04 15:17 51.66720 1.97381 26559 ft 446 kts 287°
2026-05-04 15:17 51.67753 1.92780 26271 ft 433 kts 287°
2026-05-04 15:18 51.68765 1.88266 26070 ft 419 kts 287°
2026-05-04 15:18 51.69725 1.83972 25851 ft 406 kts 287°
2026-05-04 15:18 51.70665 1.79747 25579 ft 395 kts 287°
2026-05-04 15:19 51.72449 1.71720 25298 ft 369 kts 287°
2026-05-04 15:19 51.73301 1.67878 25103 ft 358 kts 287°
2026-05-04 15:19 51.74529 1.60546 24981 ft 325 kts 272°
2026-05-04 15:20 51.74529 1.56960 24666 ft 318 kts 264°
2026-05-04 15:20 51.74313 1.53411 24346 ft 313 kts 262°
2026-05-04 15:20 51.74081 1.49995 24027 ft 309 kts 262°
2026-05-04 15:20 51.73851 1.46583 23711 ft 304 kts 262°
2026-05-04 15:21 51.73626 1.43203 23357 ft 299 kts 263°
2026-05-04 15:21 51.73405 1.39902 23063 ft 295 kts 263°
2026-05-04 15:21 51.72979 1.33432 22400 ft 289 kts 262°
2026-05-04 15:22 51.72768 1.30244 22022 ft 288 kts 262°
2026-05-04 15:22 51.72558 1.27059 21635 ft 288 kts 262°
2026-05-04 15:22 51.72132 1.20667 20875 ft 287 kts 262°
2026-05-04 15:23 51.71921 1.17503 20508 ft 286 kts 262°
2026-05-04 15:23 51.71706 1.14313 20130 ft 286 kts 263°
2026-05-04 15:23 51.71492 1.11145 19767 ft 286 kts 263°
2026-05-04 15:23 51.71278 1.07992 19402 ft 285 kts 263°
2026-05-04 15:24 51.70847 1.01675 18695 ft 284 kts 263°
2026-05-04 15:24 51.70413 0.95334 17981 ft 284 kts 263°
2026-05-04 15:25 51.70197 0.92193 17523 ft 288 kts 263°
2026-05-04 15:25 51.69971 0.88947 16826 ft 300 kts 263°
2026-05-04 15:25 51.69734 0.85576 16157 ft 310 kts 263°
2026-05-04 15:26 51.69244 0.78658 15365 ft 309 kts 263°
2026-05-04 15:26 51.69002 0.75248 15000 ft 307 kts 264°
2026-05-04 15:26 51.68521 0.68468 14278 ft 304 kts 264°
2026-05-04 15:27 51.68282 0.65104 13929 ft 303 kts 264°
2026-05-04 15:27 51.67803 0.58397 13248 ft 300 kts 264°
2026-05-04 15:28 51.67326 0.51798 12589 ft 296 kts 264°
2026-05-04 15:28 51.67088 0.48535 12265 ft 295 kts 264°
2026-05-04 15:28 51.66611 0.42020 11599 ft 292 kts 263°
2026-05-04 15:29 51.66374 0.38799 11276 ft 290 kts 263°
2026-05-04 15:30 51.65426 0.26060 9970 ft 284 kts 262°
2026-05-04 15:30 51.64742 0.16977 8930 ft 262 kts 264°
2026-05-04 15:31 51.64724 0.11323 8119 ft 247 kts 272°
2026-05-04 15:31 51.64818 0.08601 7835 ft 244 kts 273°
2026-05-04 15:32 51.65088 0.00535 7089 ft 239 kts 273°
2026-05-04 15:32 51.65257 -0.04802 6999 ft 239 kts 274°
2026-05-04 15:33 51.65414 -0.09966 6996 ft 230 kts 274°
2026-05-04 15:34 51.64930 -0.17458 6974 ft 230 kts 228°
2026-05-04 15:34 51.63634 -0.18895 6899 ft 233 kts 203°
2026-05-04 15:34 51.60635 -0.20786 6475 ft 229 kts 204°
2026-05-04 15:35 51.57662 -0.21653 5917 ft 217 kts 154°
2026-05-04 15:35 51.56594 -0.20109 5590 ft 206 kts 122°
2026-05-04 15:35 51.55839 -0.18230 5270 ft 199 kts 122°
2026-05-04 15:36 51.54362 -0.14578 4660 ft 194 kts 121°
2026-05-04 15:36 51.53653 -0.12749 4373 ft 193 kts 121°
2026-05-04 15:36 51.52954 -0.10917 4088 ft 192 kts 115°
2026-05-04 15:37 51.52585 -0.08921 3786 ft 189 kts 97°
2026-05-04 15:37 51.52416 -0.06838 3493 ft 188 kts 95°
2026-05-04 15:37 51.52272 -0.04761 3197 ft 188 kts 94°
2026-05-04 15:37 51.52121 -0.02688 2979 ft 184 kts 94°
2026-05-04 15:38 51.51848 -0.00678 2959 ft 187 kts 114°
2026-05-04 15:38 51.50901 0.00733 2955 ft 192 kts 155°
2026-05-04 15:38 51.49578 0.01031 2973 ft 194 kts 182°
2026-05-04 15:38 51.48248 0.00615 2973 ft 195 kts 194°
2026-05-04 15:39 51.46978 -0.00073 2965 ft 195 kts 200°
2026-05-04 15:39 51.45777 -0.01048 2944 ft 195 kts 223°
2026-05-04 15:39 51.45289 -0.04851 2973 ft 180 kts 288°
2026-05-04 15:40 51.45563 -0.06815 2962 ft 180 kts 283°
2026-05-04 15:40 51.45783 -0.08777 2954 ft 179 kts 284°
2026-05-04 15:40 51.46129 -0.10681 2983 ft 179 kts 286°
2026-05-04 15:40 51.46368 -0.12632 2969 ft 180 kts 278°
2026-05-04 15:41 51.46485 -0.14639 2965 ft 180 kts 277°
2026-05-04 15:41 51.46560 -0.16653 2966 ft 181 kts 276°
2026-05-04 15:41 51.46595 -0.18671 2942 ft 181 kts 275°
2026-05-04 15:41 51.46603 -0.20694 2957 ft 182 kts 274°
2026-05-04 15:42 51.46603 -0.22722 2962 ft 182 kts 273°
2026-05-04 15:42 51.46598 -0.24749 2737 ft 183 kts 270°
2026-05-04 15:42 51.46505 -0.26732 2465 ft 175 kts 267°
2026-05-04 15:42 51.46425 -0.28615 2227 ft 165 kts 271°
2026-05-04 15:43 51.46424 -0.30457 1823 ft 166 kts 277°
2026-05-04 15:43 51.46526 -0.32240 1556 ft 155 kts 277°
2026-05-04 15:43 51.46520 -0.33901 1316 ft 145 kts 270°
2026-05-04 15:43 51.46500 -0.35485 988 ft 142 kts 274°
2026-05-04 15:44 51.46525 -0.37026 811 ft 137 kts 274°
2026-05-04 15:44 51.46504 -0.38584 724 ft 145 kts 273°
2026-05-04 15:44 51.46501 -0.40232 608 ft 148 kts 273°
2026-05-04 15:44 51.46498 -0.41873 372 ft 147 kts 273°
2026-05-04 15:45 51.46493 -0.43470 132 ft 139 kts 272°
2026-05-04 15:45 51.46486 -0.44900 78 ft 112 kts 272°
2026-05-04 15:45 51.46489 -0.45871 78 ft 62 kts 269°
2026-05-04 15:45 51.46507 -0.46542 78 ft 57 kts 281°
2026-05-04 15:46 51.46624 -0.46864 78 ft 16 kts 349°
2026-05-04 15:46 51.46656 -0.47015 78 ft 16 kts 269°
2026-05-04 15:46 51.46658 -0.47203 78 ft 17 kts 270°
2026-05-04 15:46 51.46655 -0.47403 78 ft 18 kts 267°
2026-05-04 15:47 51.46654 -0.47664 78 ft 29 kts 270°
2026-05-04 15:47 51.46650 -0.48031 78 ft 35 kts 272°
2026-05-04 15:47 51.46654 -0.48372 78 ft 24 kts 273°
2026-05-04 15:47 51.46776 -0.48469 78 ft 22 kts 360°
2026-05-04 15:48 51.46927 -0.48475 78 ft 21 kts 355°
2026-05-04 15:48 51.46994 -0.48577 78 ft 12 kts 271°
2026-05-04 15:48 51.46994 -0.48619 78 ft 0 kts 271°